Columbus, OH

12:19 PM EDT on September 30, 2016 (GMT -0400)
Ohio State University

Weather History for KOSU - December, 2012

Change the Weather History Date:

Saturday, December 15, 2012

  Actual Average Record
Temperature  
Mean Temperature 43 °F -  
Max Temperature 50 °F 38 °F 59 °F (2011)
Min Temperature 36 °F 25 °F 6 °F (2010)
Degree Days  
Heating Degree Days 22    
Moisture  
Dew Point 32 °F    
Average Humidity 64    
Maximum Humidity 73    
Minimum Humidity 50    
Precipitation  
Precipitation 0.00 in - - ()
Sea Level Pressure  
Sea Level Pressure 30.01 in    
Wind  
Wind Speed 6 mph (SE)    
Max Wind Speed 12 mph    
Max Gust Speed 17 mph    
Visibility 10 miles    
Events Rain    
Averages and records for this station are not official NWS values.
T = Trace of Precipitation, MM = Missing Value Source: NWS Daily Summary

Daily Weather History Graph

Daily Weather History Graph

Search for Another Location

Airport or City:

Trip Planner

Search our weather history database for the weather conditions in past years. The results will help you decide how hot, cold, wet, or windy it might be!

Date:

Astronomy

Dec. 15, 2012 Rise Set
Actual Time 7:47 AM EST 5:07 PM EST
Civil Twilight 7:17 AM EST 5:38 PM EST
Nautical Twilight 6:42 AM EST 6:12 PM EST
Astronomical Twilight 6:09 AM EST 6:45 PM EST
Moon 9:39 AM EST (12/15) 8:10 PM EST (12/15)
Length of Visible Light 10h 21m
Length of Day
9h 20m
Waxing Crescent, 8% of the Moon is Illuminated
Dec 15
Waxing Crescent
Dec 20
First Quarter
Dec 28
Full
Jan 4
Last Quarter
Jan 11
New

Hourly Weather History & Observations

Time (EST) Temp. Windchill Dew Point Humidity Pressure Visibility Wind Dir Wind Speed Gust Speed Precip Events Conditions
12:53 AM 37.0 °F 34.5 °F 28.0 °F 70% 30.18 in 10.0 mi ESE 3.5 mph - N/A   Clear
1:53 AM 37.9 °F 35.5 °F 28.0 °F 68% 30.18 in 10.0 mi SSE 3.5 mph - N/A   Clear
2:53 AM 37.0 °F 34.5 °F 27.0 °F 67% 30.17 in 10.0 mi SE 3.5 mph - N/A   Clear
3:53 AM 37.0 °F 34.5 °F 27.0 °F 67% 30.16 in 10.0 mi SE 3.5 mph - N/A   Clear
4:53 AM 37.0 °F 34.5 °F 27.0 °F 67% 30.15 in 10.0 mi ESE 3.5 mph - N/A   Clear
5:53 AM 37.9 °F 32.7 °F 27.0 °F 65% 30.14 in 10.0 mi SE 6.9 mph - N/A   Clear
6:53 AM 36.0 °F 31.1 °F 28.0 °F 73% 30.13 in 10.0 mi East 5.8 mph - N/A   Clear
7:53 AM 39.0 °F 35.7 °F 27.0 °F 62% 30.14 in 10.0 mi SE 4.6 mph - N/A   Clear
8:53 AM 39.9 °F 37.8 °F 28.0 °F 63% 30.16 in 10.0 mi SSE 3.5 mph - N/A   Mostly Cloudy
9:53 AM 42.1 °F 37.1 °F 28.9 °F 60% 30.10 in 10.0 mi ESE 8.1 mph - N/A   Mostly Cloudy
10:53 AM 43.0 °F 38.2 °F 28.9 °F 58% 30.07 in 10.0 mi East 8.1 mph - N/A   Scattered Clouds
11:53 AM 46.0 °F 43.1 °F 28.0 °F 50% 30.04 in 10.0 mi SSE 5.8 mph - N/A   Partly Cloudy
12:53 PM 46.0 °F 43.1 °F 30.9 °F 56% 30.05 in 10.0 mi South 5.8 mph - N/A   Mostly Cloudy
1:53 PM 46.0 °F 41.4 °F 33.1 °F 61% 29.96 in 10.0 mi SE 9.2 mph - N/A   Overcast
2:53 PM 48.9 °F - 34.0 °F 56% 29.92 in 10.0 mi SSE 9.2 mph - 0.00 in   Partly Cloudy
3:53 PM 48.9 °F - 35.1 °F 59% 29.90 in 10.0 mi SSE 10.4 mph - 0.00 in   Overcast
4:53 PM 48.9 °F - 37.9 °F 66% 29.89 in 10.0 mi SSE 9.2 mph - 0.00 in   Overcast
5:53 PM 48.0 °F - 39.0 °F 71% 29.89 in 10.0 mi SSE 8.1 mph - 0.00 in Rain Light Rain
6:53 PM 48.0 °F - 37.9 °F 68% 29.86 in 10.0 mi SE 9.2 mph - 0.00 in   Overcast
7:53 PM 48.0 °F - 37.9 °F 68% 29.84 in 10.0 mi SE 9.2 mph - N/A   Overcast
8:53 PM 48.9 °F - 37.0 °F 64% 29.85 in 10.0 mi SSE 11.5 mph 17.3 mph N/A   Overcast
9:53 PM 50.0 °F - 37.0 °F 61% 29.83 in 10.0 mi SSE 9.2 mph - N/A   Overcast
10:53 PM 50.0 °F - 37.9 °F 63% 29.81 in 10.0 mi SSE 9.2 mph - N/A   Overcast
11:53 PM 50.0 °F - 37.9 °F 63% 29.81 in 10.0 mi South 9.2 mph - N/A   Overcast